owner,sensor,date,latitude,longitude,relative_humidity,qcFlag 
DISL,ioos:station:DISL:PPTA:1,2012-08-01T00:00:00Z,30.2791,-87.5561,79.71,1111122 
DISL,ioos:station:DISL:PPTA:1,2012-08-01T00:30:00Z,30.2791,-87.5561,78.96,1111122 
DISL,ioos:station:DISL:PPTA:1,2012-08-01T01:00:00Z,30.2791,-87.5561,80.6,1111122 
DISL,ioos:station:DISL:PPTA:1,2012-08-01T01:30:00Z,30.2791,-87.5561,83.9,1111122 
DISL,ioos:station:DISL:PPTA:1,2012-08-01T02:00:00Z,30.2791,-87.5561,84.4,1111122 
DISL,ioos:station:DISL:PPTA:1,2012-08-01T02:30:00Z,30.2791,-87.5561,85.4,1111122 
DISL,ioos:station:DISL:PPTA:1,2012-08-01T03:00:00Z,30.2791,-87.5561,84.7,1111122 
DISL,ioos:station:DISL:PPTA:1,2012-08-01T03:30:00Z,30.2791,-87.5561,86.3,1111122 
DISL,ioos:station:DISL:PPTA:1,2012-08-01T04:00:00Z,30.2791,-87.5561,86.1,1111122 
DISL,ioos:station:DISL:PPTA:1,2012-08-01T04:30:00Z,30.2791,-87.5561,86.6,1111122 
DISL,ioos:station:DISL:PPTA:1,2012-08-01T05:00:00Z,30.2791,-87.5561,86.3,1111122 
DISL,ioos:station:DISL:PPTA:1,2012-08-01T05:30:00Z,30.2791,-87.5561,86.5,1111122 
DISL,ioos:station:DISL:PPTA:1,2012-08-01T06:00:00Z,30.2791,-87.5561,86.4,1111122 
DISL,ioos:station:DISL:PPTA:1,2012-08-01T06:30:00Z,30.2791,-87.5561,86.3,1111122 
DISL,ioos:station:DISL:PPTA:1,2012-08-01T07:00:00Z,30.2791,-87.5561,86.5,1111122 
DISL,ioos:station:DISL:PPTA:1,2012-08-01T07:30:00Z,30.2791,-87.5561,85.9,1111122 
DISL,ioos:station:DISL:PPTA:1,2012-08-01T08:00:00Z,30.2791,-87.5561,84.7,1111122 
DISL,ioos:station:DISL:PPTA:1,2012-08-01T08:30:00Z,30.2791,-87.5561,85.2,1111122 
DISL,ioos:station:DISL:PPTA:1,2012-08-01T09:00:00Z,30.2791,-87.5561,85.8,1111122 
DISL,ioos:station:DISL:PPTA:1,2012-08-01T09:30:00Z,30.2791,-87.5561,88.0,1111122 
DISL,ioos:station:DISL:PPTA:1,2012-08-01T10:00:00Z,30.2791,-87.5561,88.4,1111122 
DISL,ioos:station:DISL:PPTA:1,2012-08-01T10:30:00Z,30.2791,-87.5561,77.13,1111122 
DISL,ioos:station:DISL:PPTA:1,2012-08-01T11:00:00Z,30.2791,-87.5561,73.36,1111122 
DISL,ioos:station:DISL:PPTA:1,2012-08-01T11:30:00Z,30.2791,-87.5561,77.19,1111122 
DISL,ioos:station:DISL:PPTA:1,2012-08-01T12:00:00Z,30.2791,-87.5561,77.46,1111122 
DISL,ioos:station:DISL:PPTA:1,2012-08-01T12:30:00Z,30.2791,-87.5561,80.2,1111122 
DISL,ioos:station:DISL:PPTA:1,2012-08-01T13:00:00Z,30.2791,-87.5561,82.1,1111122 
DISL,ioos:station:DISL:PPTA:1,2012-08-01T13:30:00Z,30.2791,-87.5561,78.96,1111122 
DISL,ioos:station:DISL:PPTA:1,2012-08-01T14:00:00Z,30.2791,-87.5561,77.53,1111122 
DISL,ioos:station:DISL:PPTA:1,2012-08-01T14:30:00Z,30.2791,-87.5561,75.8,1111122 
DISL,ioos:station:DISL:PPTA:1,2012-08-01T15:00:00Z,30.2791,-87.5561,75.43,1111122 
DISL,ioos:station:DISL:PPTA:1,2012-08-01T15:30:00Z,30.2791,-87.5561,77.79,1111122 
DISL,ioos:station:DISL:PPTA:1,2012-08-01T16:00:00Z,30.2791,-87.5561,76.99,1111122 
DISL,ioos:station:DISL:PPTA:1,2012-08-01T16:30:00Z,30.2791,-87.5561,76.22,1111122 
DISL,ioos:station:DISL:PPTA:1,2012-08-01T17:00:00Z,30.2791,-87.5561,75.23,1111122 
DISL,ioos:station:DISL:PPTA:1,2012-08-01T17:30:00Z,30.2791,-87.5561,72.81,1111122 
DISL,ioos:station:DISL:PPTA:1,2012-08-01T18:00:00Z,30.2791,-87.5561,69.47,1111122 
DISL,ioos:station:DISL:PPTA:1,2012-08-01T18:30:00Z,30.2791,-87.5561,70.25,1111122 
DISL,ioos:station:DISL:PPTA:1,2012-08-01T19:00:00Z,30.2791,-87.5561,67.53,1111122 
DISL,ioos:station:DISL:PPTA:1,2012-08-01T19:30:00Z,30.2791,-87.5561,69.16,1111122 
DISL,ioos:station:DISL:PPTA:1,2012-08-01T20:00:00Z,30.2791,-87.5561,68.28,1111122 
DISL,ioos:station:DISL:PPTA:1,2012-08-01T20:30:00Z,30.2791,-87.5561,67.61,1111122 
DISL,ioos:station:DISL:PPTA:1,2012-08-01T21:00:00Z,30.2791,-87.5561,68.56,1111122 
DISL,ioos:station:DISL:PPTA:1,2012-08-01T21:30:00Z,30.2791,-87.5561,67.68,1111122 
DISL,ioos:station:DISL:PPTA:1,2012-08-01T22:00:00Z,30.2791,-87.5561,69.35,1111122 
DISL,ioos:station:DISL:PPTA:1,2012-08-01T22:30:00Z,30.2791,-87.5561,73.06,1111122 
DISL,ioos:station:DISL:PPTA:1,2012-08-01T23:00:00Z,30.2791,-87.5561,76.23,1111122 
DISL,ioos:station:DISL:PPTA:1,2012-08-01T23:30:00Z,30.2791,-87.5561,75.88,1111122 
DISL,ioos:station:DISL:PPTA:1,2012-08-02T00:00:00Z,30.2791,-87.5561,81.3,1111122 
DISL,ioos:station:DISL:PPTA:1,2012-08-02T00:30:00Z,30.2791,-87.5561,82.8,1111122 
DISL,ioos:station:DISL:PPTA:1,2012-08-02T01:00:00Z,30.2791,-87.5561,82.4,1111122 
DISL,ioos:station:DISL:PPTA:1,2012-08-02T01:30:00Z,30.2791,-87.5561,84.7,1111122 
DISL,ioos:station:DISL:PPTA:1,2012-08-02T02:00:00Z,30.2791,-87.5561,85.2,1111122 
DISL,ioos:station:DISL:PPTA:1,2012-08-02T02:30:00Z,30.2791,-87.5561,86.5,1111122 
DISL,ioos:station:DISL:PPTA:1,2012-08-02T03:00:00Z,30.2791,-87.5561,86.7,1111122 
DISL,ioos:station:DISL:PPTA:1,2012-08-02T03:30:00Z,30.2791,-87.5561,87.0,1111122 
DISL,ioos:station:DISL:PPTA:1,2012-08-02T04:00:00Z,30.2791,-87.5561,87.6,1111122 
DISL,ioos:station:DISL:PPTA:1,2012-08-02T04:30:00Z,30.2791,-87.5561,88.5,1111122 
DISL,ioos:station:DISL:PPTA:1,2012-08-02T05:00:00Z,30.2791,-87.5561,87.6,1111122 
DISL,ioos:station:DISL:PPTA:1,2012-08-02T05:30:00Z,30.2791,-87.5561,87.8,1111122 
DISL,ioos:station:DISL:PPTA:1,2012-08-02T06:00:00Z,30.2791,-87.5561,88.2,1111122 
DISL,ioos:station:DISL:PPTA:1,2012-08-02T06:30:00Z,30.2791,-87.5561,86.8,1111122 
DISL,ioos:station:DISL:PPTA:1,2012-08-02T07:00:00Z,30.2791,-87.5561,87.4,1111122 
DISL,ioos:station:DISL:PPTA:1,2012-08-02T07:30:00Z,30.2791,-87.5561,87.7,1111122 
DISL,ioos:station:DISL:PPTA:1,2012-08-02T08:00:00Z,30.2791,-87.5561,86.3,1111122 
DISL,ioos:station:DISL:PPTA:1,2012-08-02T08:30:00Z,30.2791,-87.5561,85.5,1111122 
DISL,ioos:station:DISL:PPTA:1,2012-08-02T09:00:00Z,30.2791,-87.5561,86.5,1111122 
DISL,ioos:station:DISL:PPTA:1,2012-08-02T09:30:00Z,30.2791,-87.5561,88.4,1111122 
DISL,ioos:station:DISL:PPTA:1,2012-08-02T10:00:00Z,30.2791,-87.5561,88.6,1111122 
DISL,ioos:station:DISL:PPTA:1,2012-08-02T10:30:00Z,30.2791,-87.5561,89.2,1111122 
DISL,ioos:station:DISL:PPTA:1,2012-08-02T11:00:00Z,30.2791,-87.5561,90.3,1111122 
DISL,ioos:station:DISL:PPTA:1,2012-08-02T11:30:00Z,30.2791,-87.5561,90.5,1111122 
DISL,ioos:station:DISL:PPTA:1,2012-08-02T12:00:00Z,30.2791,-87.5561,88.7,1111122 
DISL,ioos:station:DISL:PPTA:1,2012-08-02T12:30:00Z,30.2791,-87.5561,80.3,1111122 
DISL,ioos:station:DISL:PPTA:1,2012-08-02T13:00:00Z,30.2791,-87.5561,76.69,1111122 
DISL,ioos:station:DISL:PPTA:1,2012-08-02T13:30:00Z,30.2791,-87.5561,73.73,1111122 
DISL,ioos:station:DISL:PPTA:1,2012-08-02T14:00:00Z,30.2791,-87.5561,71.99,1111122 
DISL,ioos:station:DISL:PPTA:1,2012-08-02T14:30:00Z,30.2791,-87.5561,70.13,1111122 
DISL,ioos:station:DISL:PPTA:1,2012-08-02T15:00:00Z,30.2791,-87.5561,69.58,1111122 
DISL,ioos:station:DISL:PPTA:1,2012-08-02T15:30:00Z,30.2791,-87.5561,69.23,1111122 
DISL,ioos:station:DISL:PPTA:1,2012-08-02T16:00:00Z,30.2791,-87.5561,68.2,1111122 
DISL,ioos:station:DISL:PPTA:1,2012-08-02T16:30:00Z,30.2791,-87.5561,67.88,1111122 
DISL,ioos:station:DISL:PPTA:1,2012-08-02T17:00:00Z,30.2791,-87.5561,67.5,1111122 
DISL,ioos:station:DISL:PPTA:1,2012-08-02T17:30:00Z,30.2791,-87.5561,64.77,1111122 
DISL,ioos:station:DISL:PPTA:1,2012-08-02T18:00:00Z,30.2791,-87.5561,73.39,1111122 
DISL,ioos:station:DISL:PPTA:1,2012-08-02T18:30:00Z,30.2791,-87.5561,72.49,1111122 
DISL,ioos:station:DISL:PPTA:1,2012-08-02T19:00:00Z,30.2791,-87.5561,82.9,1111122 
DISL,ioos:station:DISL:PPTA:1,2012-08-02T19:30:00Z,30.2791,-87.5561,80.9,1111122 
DISL,ioos:station:DISL:PPTA:1,2012-08-02T20:00:00Z,30.2791,-87.5561,76.7,1111122 
DISL,ioos:station:DISL:PPTA:1,2012-08-02T20:30:00Z,30.2791,-87.5561,82.2,1111122 
DISL,ioos:station:DISL:PPTA:1,2012-08-02T21:00:00Z,30.2791,-87.5561,81.2,1111122 
DISL,ioos:station:DISL:PPTA:1,2012-08-02T21:30:00Z,30.2791,-87.5561,80.2,1111122 
DISL,ioos:station:DISL:PPTA:1,2012-08-02T22:00:00Z,30.2791,-87.5561,75.59,1111122 
DISL,ioos:station:DISL:PPTA:1,2012-08-02T22:30:00Z,30.2791,-87.5561,77.94,1111122 
DISL,ioos:station:DISL:PPTA:1,2012-08-02T23:00:00Z,30.2791,-87.5561,80.3,1111122 
DISL,ioos:station:DISL:PPTA:1,2012-08-02T23:30:00Z,30.2791,-87.5561,77.8,1111122 
DISL,ioos:station:DISL:PPTA:1,2012-08-03T00:00:00Z,30.2791,-87.5561,77.05,1111122 
DISL,ioos:station:DISL:PPTA:1,2012-08-03T00:30:00Z,30.2791,-87.5561,76.6,1111122 
DISL,ioos:station:DISL:PPTA:1,2012-08-03T01:00:00Z,30.2791,-87.5561,75.85,1111122 
DISL,ioos:station:DISL:PPTA:1,2012-08-03T01:30:00Z,30.2791,-87.5561,76.16,1111122 
DISL,ioos:station:DISL:PPTA:1,2012-08-03T02:00:00Z,30.2791,-87.5561,75.89,1111122 
DISL,ioos:station:DISL:PPTA:1,2012-08-03T02:30:00Z,30.2791,-87.5561,76.64,1111122 
DISL,ioos:station:DISL:PPTA:1,2012-08-03T03:00:00Z,30.2791,-87.5561,76.77,1111122 
DISL,ioos:station:DISL:PPTA:1,2012-08-03T03:30:00Z,30.2791,-87.5561,77.52,1111122 
DISL,ioos:station:DISL:PPTA:1,2012-08-03T04:00:00Z,30.2791,-87.5561,78.48,1111122 
DISL,ioos:station:DISL:PPTA:1,2012-08-03T04:30:00Z,30.2791,-87.5561,74.15,1111122 
DISL,ioos:station:DISL:PPTA:1,2012-08-03T05:00:00Z,30.2791,-87.5561,75.72,1111122 
DISL,ioos:station:DISL:PPTA:1,2012-08-03T05:30:00Z,30.2791,-87.5561,74.73,1111122 
DISL,ioos:station:DISL:PPTA:1,2012-08-03T06:00:00Z,30.2791,-87.5561,75.24,1111122 
DISL,ioos:station:DISL:PPTA:1,2012-08-03T06:30:00Z,30.2791,-87.5561,75.14,1111122 
DISL,ioos:station:DISL:PPTA:1,2012-08-03T07:00:00Z,30.2791,-87.5561,77.97,1111122 
DISL,ioos:station:DISL:PPTA:1,2012-08-03T07:30:00Z,30.2791,-87.5561,80.9,1111122 
DISL,ioos:station:DISL:PPTA:1,2012-08-03T08:00:00Z,30.2791,-87.5561,84.6,1111122 
DISL,ioos:station:DISL:PPTA:1,2012-08-03T08:30:00Z,30.2791,-87.5561,85.3,1111122 
DISL,ioos:station:DISL:PPTA:1,2012-08-03T09:00:00Z,30.2791,-87.5561,83.2,1111122 
DISL,ioos:station:DISL:PPTA:1,2012-08-03T09:30:00Z,30.2791,-87.5561,84.8,1111122 
DISL,ioos:station:DISL:PPTA:1,2012-08-03T10:00:00Z,30.2791,-87.5561,83.2,1111122 
DISL,ioos:station:DISL:PPTA:1,2012-08-03T10:30:00Z,30.2791,-87.5561,81.6,1111122 
DISL,ioos:station:DISL:PPTA:1,2012-08-03T11:00:00Z,30.2791,-87.5561,82.3,1111122 
DISL,ioos:station:DISL:PPTA:1,2012-08-03T11:30:00Z,30.2791,-87.5561,81.1,1111122 
DISL,ioos:station:DISL:PPTA:1,2012-08-03T12:00:00Z,30.2791,-87.5561,79.56,1111122 
DISL,ioos:station:DISL:PPTA:1,2012-08-03T12:30:00Z,30.2791,-87.5561,78.41,1111122 
DISL,ioos:station:DISL:PPTA:1,2012-08-03T13:00:00Z,30.2791,-87.5561,76.33,1111122 
DISL,ioos:station:DISL:PPTA:1,2012-08-03T13:30:00Z,30.2791,-87.5561,74.5,1111122 
DISL,ioos:station:DISL:PPTA:1,2012-08-03T14:00:00Z,30.2791,-87.5561,74.52,1111122 
DISL,ioos:station:DISL:PPTA:1,2012-08-03T14:30:00Z,30.2791,-87.5561,74.39,1111122 
DISL,ioos:station:DISL:PPTA:1,2012-08-03T15:00:00Z,30.2791,-87.5561,69.44,1111122 
DISL,ioos:station:DISL:PPTA:1,2012-08-03T15:30:00Z,30.2791,-87.5561,68.73,1111122 
DISL,ioos:station:DISL:PPTA:1,2012-08-03T16:00:00Z,30.2791,-87.5561,71.22,1111122 
DISL,ioos:station:DISL:PPTA:1,2012-08-03T16:30:00Z,30.2791,-87.5561,66.27,1111122 
DISL,ioos:station:DISL:PPTA:1,2012-08-03T17:00:00Z,30.2791,-87.5561,67.41,1111122 
DISL,ioos:station:DISL:PPTA:1,2012-08-03T17:30:00Z,30.2791,-87.5561,69.51,1111122 
DISL,ioos:station:DISL:PPTA:1,2012-08-03T18:00:00Z,30.2791,-87.5561,68.7,1111122 
DISL,ioos:station:DISL:PPTA:1,2012-08-03T18:30:00Z,30.2791,-87.5561,68.96,1111122 
DISL,ioos:station:DISL:PPTA:1,2012-08-03T19:00:00Z,30.2791,-87.5561,69.23,1111122 
DISL,ioos:station:DISL:PPTA:1,2012-08-03T19:30:00Z,30.2791,-87.5561,70.52,1111122 
DISL,ioos:station:DISL:PPTA:1,2012-08-03T20:00:00Z,30.2791,-87.5561,70.26,1111122 
DISL,ioos:station:DISL:PPTA:1,2012-08-03T20:30:00Z,30.2791,-87.5561,71.06,1111122 
DISL,ioos:station:DISL:PPTA:1,2012-08-03T21:00:00Z,30.2791,-87.5561,70.53,1111122 
DISL,ioos:station:DISL:PPTA:1,2012-08-03T21:30:00Z,30.2791,-87.5561,73.6,1111122 
DISL,ioos:station:DISL:PPTA:1,2012-08-03T22:00:00Z,30.2791,-87.5561,76.86,1111122 
DISL,ioos:station:DISL:PPTA:1,2012-08-03T22:30:00Z,30.2791,-87.5561,77.47,1111122 
DISL,ioos:station:DISL:PPTA:1,2012-08-03T23:00:00Z,30.2791,-87.5561,79.99,1111122 
DISL,ioos:station:DISL:PPTA:1,2012-08-03T23:30:00Z,30.2791,-87.5561,80.0,1111122 
DISL,ioos:station:DISL:PPTA:1,2012-08-04T00:00:00Z,30.2791,-87.5561,78.82,1111122 
DISL,ioos:station:DISL:PPTA:1,2012-08-04T00:30:00Z,30.2791,-87.5561,82.0,1111122 
DISL,ioos:station:DISL:PPTA:1,2012-08-04T01:00:00Z,30.2791,-87.5561,83.8,1111122 
DISL,ioos:station:DISL:PPTA:1,2012-08-04T01:30:00Z,30.2791,-87.5561,83.0,1111122 
DISL,ioos:station:DISL:PPTA:1,2012-08-04T02:00:00Z,30.2791,-87.5561,80.7,1111122 
DISL,ioos:station:DISL:PPTA:1,2012-08-04T02:30:00Z,30.2791,-87.5561,81.3,1111122 
DISL,ioos:station:DISL:PPTA:1,2012-08-04T03:00:00Z,30.2791,-87.5561,80.9,1111122 
DISL,ioos:station:DISL:PPTA:1,2012-08-04T03:30:00Z,30.2791,-87.5561,82.4,1111122 
DISL,ioos:station:DISL:PPTA:1,2012-08-04T04:00:00Z,30.2791,-87.5561,80.0,1111122 
DISL,ioos:station:DISL:PPTA:1,2012-08-04T04:30:00Z,30.2791,-87.5561,82.2,1111122 
DISL,ioos:station:DISL:PPTA:1,2012-08-04T05:00:00Z,30.2791,-87.5561,84.5,1111122 
DISL,ioos:station:DISL:PPTA:1,2012-08-04T05:30:00Z,30.2791,-87.5561,83.1,1111122 
DISL,ioos:station:DISL:PPTA:1,2012-08-04T06:00:00Z,30.2791,-87.5561,85.3,1111122 
DISL,ioos:station:DISL:PPTA:1,2012-08-04T06:30:00Z,30.2791,-87.5561,86.1,1111122 
DISL,ioos:station:DISL:PPTA:1,2012-08-04T07:00:00Z,30.2791,-87.5561,86.3,1111122 
DISL,ioos:station:DISL:PPTA:1,2012-08-04T07:30:00Z,30.2791,-87.5561,86.9,1111122 
DISL,ioos:station:DISL:PPTA:1,2012-08-04T08:00:00Z,30.2791,-87.5561,78.08,1111122 
DISL,ioos:station:DISL:PPTA:1,2012-08-04T08:30:00Z,30.2791,-87.5561,72.83,1111122 
DISL,ioos:station:DISL:PPTA:1,2012-08-04T09:00:00Z,30.2791,-87.5561,82.4,1111122 
DISL,ioos:station:DISL:PPTA:1,2012-08-04T09:30:00Z,30.2791,-87.5561,85.6,1111122 
DISL,ioos:station:DISL:PPTA:1,2012-08-04T10:00:00Z,30.2791,-87.5561,85.0,1111122 
DISL,ioos:station:DISL:PPTA:1,2012-08-04T10:30:00Z,30.2791,-87.5561,84.7,1111122 
DISL,ioos:station:DISL:PPTA:1,2012-08-04T11:00:00Z,30.2791,-87.5561,88.1,1111122 
DISL,ioos:station:DISL:PPTA:1,2012-08-04T11:30:00Z,30.2791,-87.5561,88.7,1111122 
DISL,ioos:station:DISL:PPTA:1,2012-08-04T12:00:00Z,30.2791,-87.5561,85.4,1111122 
DISL,ioos:station:DISL:PPTA:1,2012-08-04T12:30:00Z,30.2791,-87.5561,84.4,1111122 
DISL,ioos:station:DISL:PPTA:1,2012-08-04T13:00:00Z,30.2791,-87.5561,80.4,1111122 
DISL,ioos:station:DISL:PPTA:1,2012-08-04T13:30:00Z,30.2791,-87.5561,76.11,1111122 
DISL,ioos:station:DISL:PPTA:1,2012-08-04T14:00:00Z,30.2791,-87.5561,74.66,1111122 
DISL,ioos:station:DISL:PPTA:1,2012-08-04T14:30:00Z,30.2791,-87.5561,77.44,1111122 
DISL,ioos:station:DISL:PPTA:1,2012-08-04T15:00:00Z,30.2791,-87.5561,78.88,1111122 
DISL,ioos:station:DISL:PPTA:1,2012-08-04T15:30:00Z,30.2791,-87.5561,70.89,1111122 
DISL,ioos:station:DISL:PPTA:1,2012-08-04T16:00:00Z,30.2791,-87.5561,70.16,1111122 
DISL,ioos:station:DISL:PPTA:1,2012-08-04T16:30:00Z,30.2791,-87.5561,71.01,1111122 
DISL,ioos:station:DISL:PPTA:1,2012-08-04T17:00:00Z,30.2791,-87.5561,74.2,1111122 
DISL,ioos:station:DISL:PPTA:1,2012-08-04T17:30:00Z,30.2791,-87.5561,72.26,1111122 
DISL,ioos:station:DISL:PPTA:1,2012-08-04T18:00:00Z,30.2791,-87.5561,69.6,1111122 
DISL,ioos:station:DISL:PPTA:1,2012-08-04T18:30:00Z,30.2791,-87.5561,68.31,1111122 
DISL,ioos:station:DISL:PPTA:1,2012-08-04T19:00:00Z,30.2791,-87.5561,68.59,1111122 
DISL,ioos:station:DISL:PPTA:1,2012-08-04T19:30:00Z,30.2791,-87.5561,68.12,1111122 
DISL,ioos:station:DISL:PPTA:1,2012-08-04T20:00:00Z,30.2791,-87.5561,67.3,1111122 
DISL,ioos:station:DISL:PPTA:1,2012-08-04T20:30:00Z,30.2791,-87.5561,66.45,1111122 
DISL,ioos:station:DISL:PPTA:1,2012-08-04T21:00:00Z,30.2791,-87.5561,64.61,1111122 
DISL,ioos:station:DISL:PPTA:1,2012-08-04T21:30:00Z,30.2791,-87.5561,65.19,1111122 
DISL,ioos:station:DISL:PPTA:1,2012-08-04T22:00:00Z,30.2791,-87.5561,69.32,1111122 
DISL,ioos:station:DISL:PPTA:1,2012-08-04T22:30:00Z,30.2791,-87.5561,69.44,1111122 
DISL,ioos:station:DISL:PPTA:1,2012-08-04T23:00:00Z,30.2791,-87.5561,70.36,1111122 
DISL,ioos:station:DISL:PPTA:1,2012-08-04T23:30:00Z,30.2791,-87.5561,71.18,1111122 
DISL,ioos:station:DISL:PPTA:1,2012-08-05T00:00:00Z,30.2791,-87.5561,71.88,1111122 
DISL,ioos:station:DISL:PPTA:1,2012-08-05T00:30:00Z,30.2791,-87.5561,72.26,1111122 
DISL,ioos:station:DISL:PPTA:1,2012-08-05T01:00:00Z,30.2791,-87.5561,71.57,1111122 
DISL,ioos:station:DISL:PPTA:1,2012-08-05T01:30:00Z,30.2791,-87.5561,71.14,1111122 
DISL,ioos:station:DISL:PPTA:1,2012-08-05T02:00:00Z,30.2791,-87.5561,72.55,1111122 
DISL,ioos:station:DISL:PPTA:1,2012-08-05T02:30:00Z,30.2791,-87.5561,72.11,1111122 
DISL,ioos:station:DISL:PPTA:1,2012-08-05T03:00:00Z,30.2791,-87.5561,73.64,1111122 
DISL,ioos:station:DISL:PPTA:1,2012-08-05T03:30:00Z,30.2791,-87.5561,75.83,1111122 
DISL,ioos:station:DISL:PPTA:1,2012-08-05T04:00:00Z,30.2791,-87.5561,75.72,1111122 
DISL,ioos:station:DISL:PPTA:1,2012-08-05T04:30:00Z,30.2791,-87.5561,72.49,1111122 
DISL,ioos:station:DISL:PPTA:1,2012-08-05T05:00:00Z,30.2791,-87.5561,73.88,1111122 
DISL,ioos:station:DISL:PPTA:1,2012-08-05T05:30:00Z,30.2791,-87.5561,73.61,1111122 
DISL,ioos:station:DISL:PPTA:1,2012-08-05T06:00:00Z,30.2791,-87.5561,72.89,1111122 
DISL,ioos:station:DISL:PPTA:1,2012-08-05T06:30:00Z,30.2791,-87.5561,75.04,1111122 
DISL,ioos:station:DISL:PPTA:1,2012-08-05T07:00:00Z,30.2791,-87.5561,74.7,1111122 
DISL,ioos:station:DISL:PPTA:1,2012-08-05T07:30:00Z,30.2791,-87.5561,75.59,1111122 
DISL,ioos:station:DISL:PPTA:1,2012-08-05T08:00:00Z,30.2791,-87.5561,74.84,1111122 
DISL,ioos:station:DISL:PPTA:1,2012-08-05T08:30:00Z,30.2791,-87.5561,81.9,1111122 
DISL,ioos:station:DISL:PPTA:1,2012-08-05T09:00:00Z,30.2791,-87.5561,85.4,1111122 
DISL,ioos:station:DISL:PPTA:1,2012-08-05T09:30:00Z,30.2791,-87.5561,87.4,1111122 
DISL,ioos:station:DISL:PPTA:1,2012-08-05T10:00:00Z,30.2791,-87.5561,88.8,1111122 
DISL,ioos:station:DISL:PPTA:1,2012-08-05T10:30:00Z,30.2791,-87.5561,89.3,1111122 
DISL,ioos:station:DISL:PPTA:1,2012-08-05T11:00:00Z,30.2791,-87.5561,88.5,1111122 
DISL,ioos:station:DISL:PPTA:1,2012-08-05T11:30:00Z,30.2791,-87.5561,88.8,1111122 
DISL,ioos:station:DISL:PPTA:1,2012-08-05T12:00:00Z,30.2791,-87.5561,89.0,1111122 
DISL,ioos:station:DISL:PPTA:1,2012-08-05T12:30:00Z,30.2791,-87.5561,88.0,1111122 
DISL,ioos:station:DISL:PPTA:1,2012-08-05T13:00:00Z,30.2791,-87.5561,84.3,1111122 
DISL,ioos:station:DISL:PPTA:1,2012-08-05T13:30:00Z,30.2791,-87.5561,79.86,1111122 
DISL,ioos:station:DISL:PPTA:1,2012-08-05T14:00:00Z,30.2791,-87.5561,77.13,1111122 
DISL,ioos:station:DISL:PPTA:1,2012-08-05T14:30:00Z,30.2791,-87.5561,73.53,1111122 
DISL,ioos:station:DISL:PPTA:1,2012-08-05T15:00:00Z,30.2791,-87.5561,72.47,1111122 
DISL,ioos:station:DISL:PPTA:1,2012-08-05T15:30:00Z,30.2791,-87.5561,64.04,1111122 
DISL,ioos:station:DISL:PPTA:1,2012-08-05T16:00:00Z,30.2791,-87.5561,62.02,1111122 
DISL,ioos:station:DISL:PPTA:1,2012-08-05T16:30:00Z,30.2791,-87.5561,60.01,1111122 
DISL,ioos:station:DISL:PPTA:1,2012-08-05T17:00:00Z,30.2791,-87.5561,71.63,1111122 
DISL,ioos:station:DISL:PPTA:1,2012-08-05T17:30:00Z,30.2791,-87.5561,70.61,1111122 
DISL,ioos:station:DISL:PPTA:1,2012-08-05T18:00:00Z,30.2791,-87.5561,70.37,1111122 
DISL,ioos:station:DISL:PPTA:1,2012-08-05T18:30:00Z,30.2791,-87.5561,70.74,1111122 
DISL,ioos:station:DISL:PPTA:1,2012-08-05T19:00:00Z,30.2791,-87.5561,69.58,1111122 
DISL,ioos:station:DISL:PPTA:1,2012-08-05T19:30:00Z,30.2791,-87.5561,65.8,1111122 
DISL,ioos:station:DISL:PPTA:1,2012-08-05T20:00:00Z,30.2791,-87.5561,67.47,1111122 
DISL,ioos:station:DISL:PPTA:1,2012-08-05T20:30:00Z,30.2791,-87.5561,65.19,1111122 
DISL,ioos:station:DISL:PPTA:1,2012-08-05T21:00:00Z,30.2791,-87.5561,61.61,1111122 
DISL,ioos:station:DISL:PPTA:1,2012-08-05T21:30:00Z,30.2791,-87.5561,64.2,1111122 
DISL,ioos:station:DISL:PPTA:1,2012-08-05T22:00:00Z,30.2791,-87.5561,62.7,1111122 
DISL,ioos:station:DISL:PPTA:1,2012-08-05T22:30:00Z,30.2791,-87.5561,63.52,1111122 
DISL,ioos:station:DISL:PPTA:1,2012-08-05T23:00:00Z,30.2791,-87.5561,64.95,1111122 
DISL,ioos:station:DISL:PPTA:1,2012-08-05T23:30:00Z,30.2791,-87.5561,86.6,1111122 
DISL,ioos:station:DISL:PPTA:1,2012-08-06T00:00:00Z,30.2791,-87.5561,86.1,1111122 
DISL,ioos:station:DISL:PPTA:1,2012-08-06T00:30:00Z,30.2791,-87.5561,88.3,1111122 
DISL,ioos:station:DISL:PPTA:1,2012-08-06T01:00:00Z,30.2791,-87.5561,86.9,1111122 
DISL,ioos:station:DISL:PPTA:1,2012-08-06T01:30:00Z,30.2791,-87.5561,84.9,1111122 
DISL,ioos:station:DISL:PPTA:1,2012-08-06T02:00:00Z,30.2791,-87.5561,80.0,1111122 
DISL,ioos:station:DISL:PPTA:1,2012-08-06T02:30:00Z,30.2791,-87.5561,79.57,1111122 
DISL,ioos:station:DISL:PPTA:1,2012-08-06T03:00:00Z,30.2791,-87.5561,80.3,1111122 
DISL,ioos:station:DISL:PPTA:1,2012-08-06T03:30:00Z,30.2791,-87.5561,86.0,1111122 
DISL,ioos:station:DISL:PPTA:1,2012-08-06T04:00:00Z,30.2791,-87.5561,89.1,1111122 
DISL,ioos:station:DISL:PPTA:1,2012-08-06T04:30:00Z,30.2791,-87.5561,87.3,1111122 
DISL,ioos:station:DISL:PPTA:1,2012-08-06T05:00:00Z,30.2791,-87.5561,86.2,1111122 
DISL,ioos:station:DISL:PPTA:1,2012-08-06T05:30:00Z,30.2791,-87.5561,80.7,1111122 
DISL,ioos:station:DISL:PPTA:1,2012-08-06T06:00:00Z,30.2791,-87.5561,82.4,1111122 
DISL,ioos:station:DISL:PPTA:1,2012-08-06T06:30:00Z,30.2791,-87.5561,79.84,1111122 
DISL,ioos:station:DISL:PPTA:1,2012-08-06T07:00:00Z,30.2791,-87.5561,80.5,1111122 
DISL,ioos:station:DISL:PPTA:1,2012-08-06T07:30:00Z,30.2791,-87.5561,79.06,1111122 
DISL,ioos:station:DISL:PPTA:1,2012-08-06T08:00:00Z,30.2791,-87.5561,77.97,1111122 
DISL,ioos:station:DISL:PPTA:1,2012-08-06T08:30:00Z,30.2791,-87.5561,80.4,1111122 
DISL,ioos:station:DISL:PPTA:1,2012-08-06T09:00:00Z,30.2791,-87.5561,82.2,1111122 
DISL,ioos:station:DISL:PPTA:1,2012-08-06T09:30:00Z,30.2791,-87.5561,84.7,1111122 
DISL,ioos:station:DISL:PPTA:1,2012-08-06T10:00:00Z,30.2791,-87.5561,86.1,1111122 
DISL,ioos:station:DISL:PPTA:1,2012-08-06T10:30:00Z,30.2791,-87.5561,86.2,1111122 
DISL,ioos:station:DISL:PPTA:1,2012-08-06T11:00:00Z,30.2791,-87.5561,86.8,1111122 
DISL,ioos:station:DISL:PPTA:1,2012-08-06T11:30:00Z,30.2791,-87.5561,87.4,1111122 
DISL,ioos:station:DISL:PPTA:1,2012-08-06T12:00:00Z,30.2791,-87.5561,87.1,1111122 
DISL,ioos:station:DISL:PPTA:1,2012-08-06T12:30:00Z,30.2791,-87.5561,84.1,1111122 
DISL,ioos:station:DISL:PPTA:1,2012-08-06T13:00:00Z,30.2791,-87.5561,84.5,1111122 
DISL,ioos:station:DISL:PPTA:1,2012-08-06T13:30:00Z,30.2791,-87.5561,84.4,1111122 
DISL,ioos:station:DISL:PPTA:1,2012-08-06T14:00:00Z,30.2791,-87.5561,81.3,1111122 
DISL,ioos:station:DISL:PPTA:1,2012-08-06T14:30:00Z,30.2791,-87.5561,78.43,1111122 
DISL,ioos:station:DISL:PPTA:1,2012-08-06T15:00:00Z,30.2791,-87.5561,75.26,1111122 
DISL,ioos:station:DISL:PPTA:1,2012-08-06T15:30:00Z,30.2791,-87.5561,73.61,1111122 
DISL,ioos:station:DISL:PPTA:1,2012-08-06T16:00:00Z,30.2791,-87.5561,72.47,1111122 
DISL,ioos:station:DISL:PPTA:1,2012-08-06T16:30:00Z,30.2791,-87.5561,73.07,1111122 
DISL,ioos:station:DISL:PPTA:1,2012-08-06T17:00:00Z,30.2791,-87.5561,79.5,1111122 
DISL,ioos:station:DISL:PPTA:1,2012-08-06T17:30:00Z,30.2791,-87.5561,78.7,1111122 
DISL,ioos:station:DISL:PPTA:1,2012-08-06T18:00:00Z,30.2791,-87.5561,74.72,1111122 
DISL,ioos:station:DISL:PPTA:1,2012-08-06T18:30:00Z,30.2791,-87.5561,75.76,1111122 
DISL,ioos:station:DISL:PPTA:1,2012-08-06T19:00:00Z,30.2791,-87.5561,83.0,1111122 
DISL,ioos:station:DISL:PPTA:1,2012-08-06T19:30:00Z,30.2791,-87.5561,85.7,1111122 
DISL,ioos:station:DISL:PPTA:1,2012-08-06T20:00:00Z,30.2791,-87.5561,82.5,1111122 
DISL,ioos:station:DISL:PPTA:1,2012-08-06T20:30:00Z,30.2791,-87.5561,86.9,1111122 
DISL,ioos:station:DISL:PPTA:1,2012-08-06T21:00:00Z,30.2791,-87.5561,85.9,1111122 
DISL,ioos:station:DISL:PPTA:1,2012-08-06T21:30:00Z,30.2791,-87.5561,86.7,1111122 
DISL,ioos:station:DISL:PPTA:1,2012-08-06T22:00:00Z,30.2791,-87.5561,84.8,1111122 
DISL,ioos:station:DISL:PPTA:1,2012-08-06T22:30:00Z,30.2791,-87.5561,83.4,1111122 
DISL,ioos:station:DISL:PPTA:1,2012-08-06T23:00:00Z,30.2791,-87.5561,81.1,1111122 
DISL,ioos:station:DISL:PPTA:1,2012-08-06T23:30:00Z,30.2791,-87.5561,80.7,1111122 
DISL,ioos:station:DISL:PPTA:1,2012-08-07T00:00:00Z,30.2791,-87.5561,81.3,1111122 
DISL,ioos:station:DISL:PPTA:1,2012-08-07T00:30:00Z,30.2791,-87.5561,84.4,1111122 